TAP1685 LPPT-LPMA

Flight info

Callsign TAP1685
Flight time 1h 32m
Altitude 35000
Route ULVOT DCT GALPA DCT RAKUN
Aircraft A321/M-SDE3FGHIRWY/LB1

Departure

Time 2026-05-04 09:19
Airport Lisbon Humberto Delgado Airport (LPPT)

Arrival

Time 2026-05-04 10:51
Airport Cristiano Ronaldo International Airport (LPMA)
Time Latitude Longitude Altitude Speed Heading
2026-05-04 08:51 38.77132 -9.13688 356 ft 0 kts 168°
2026-05-04 09:10 38.77147 -9.13692 358 ft 3 kts 174°
2026-05-04 09:10 38.77170 -9.13692 358 ft 3 kts 193°
2026-05-04 09:10 38.77190 -9.13682 360 ft 3 kts 226°
2026-05-04 09:10 38.77198 -9.13665 361 ft 0 kts 258°
2026-05-04 09:14 38.76859 -9.14044 345 ft 16 kts 202°
2026-05-04 09:14 38.76759 -9.14098 351 ft 16 kts 202°
2026-05-04 09:14 38.76661 -9.14150 345 ft 15 kts 202°
2026-05-04 09:14 38.76569 -9.14199 337 ft 14 kts 202°
2026-05-04 09:15 38.76523 -9.14269 339 ft 10 kts 278°
2026-05-04 09:15 38.76537 -9.14305 334 ft 0 kts 294°
2026-05-04 09:17 38.76717 -9.14351 336 ft 0 kts 22°
2026-05-04 09:18 38.76787 -9.14314 338 ft 38 kts 22°
2026-05-04 09:18 38.77234 -9.14075 362 ft 98 kts 22°
2026-05-04 09:18 38.77736 -9.13805 366 ft 132 kts 22°
2026-05-04 09:18 38.78701 -9.13291 426 ft 166 kts 22°
2026-05-04 09:19 38.79766 -9.12721 989 ft 166 kts 20°
2026-05-04 09:19 38.80845 -9.12139 1548 ft 170 kts 18°
2026-05-04 09:19 38.81931 -9.11503 2102 ft 175 kts 25°
2026-05-04 09:19 38.83040 -9.10685 2352 ft 194 kts 29°
2026-05-04 09:20 38.84245 -9.09742 2483 ft 216 kts 29°
2026-05-04 09:20 38.85606 -9.08669 2640 ft 241 kts 29°
2026-05-04 09:20 38.87068 -9.07518 3144 ft 253 kts 29°
2026-05-04 09:20 38.88457 -9.06110 3862 ft 261 kts 51°
2026-05-04 09:21 38.89091 -9.03902 4561 ft 272 kts 86°
2026-05-04 09:21 38.88684 -9.01521 5284 ft 279 kts 114°
2026-05-04 09:21 38.87700 -8.99389 6015 ft 283 kts 128°
2026-05-04 09:21 38.86140 -8.97856 6696 ft 286 kts 158°
2026-05-04 09:22 38.84226 -8.97159 7384 ft 287 kts 174°
2026-05-04 09:22 38.82228 -8.97147 8070 ft 287 kts 192°
2026-05-04 09:22 38.80350 -8.97890 8733 ft 286 kts 204°
2026-05-04 09:22 38.78492 -8.98845 9444 ft 288 kts 205°
2026-05-04 09:23 38.76630 -8.99830 10168 ft 290 kts 206°
2026-05-04 09:23 38.74722 -9.00856 10458 ft 307 kts 206°
2026-05-04 09:23 38.72703 -9.01947 10585 ft 328 kts 206°
2026-05-04 09:23 38.70552 -9.03109 10897 ft 340 kts 206°
2026-05-04 09:25 38.54724 -9.11547 14833 ft 363 kts 207°
2026-05-04 09:25 38.52377 -9.12802 15339 ft 366 kts 207°
2026-05-04 09:26 38.50015 -9.14063 15853 ft 368 kts 207°
2026-05-04 09:26 38.47639 -9.15327 16350 ft 371 kts 207°
2026-05-04 09:26 38.45249 -9.16593 16844 ft 373 kts 207°
2026-05-04 09:26 38.42885 -9.17889 17319 ft 374 kts 211°
2026-05-04 09:27 38.40672 -9.19621 17752 ft 371 kts 221°
2026-05-04 09:27 38.38616 -9.21639 18204 ft 374 kts 222°
2026-05-04 09:27 38.36539 -9.23675 18639 ft 376 kts 222°
2026-05-04 09:27 38.34478 -9.25688 19042 ft 378 kts 222°
2026-05-04 09:28 38.32383 -9.27733 19451 ft 379 kts 222°
2026-05-04 09:28 38.30277 -9.29787 19835 ft 381 kts 222°
2026-05-04 09:28 38.28164 -9.31842 20197 ft 382 kts 222°
2026-05-04 09:28 38.26075 -9.33867 20621 ft 382 kts 223°
2026-05-04 09:29 38.23961 -9.35916 21006 ft 382 kts 223°
2026-05-04 09:29 38.21832 -9.37980 21378 ft 384 kts 223°
2026-05-04 09:29 38.19701 -9.40044 21755 ft 385 kts 223°
2026-05-04 09:29 38.17563 -9.42117 22117 ft 387 kts 223°
2026-05-04 09:30 38.15444 -9.44171 22462 ft 388 kts 223°
2026-05-04 09:30 38.13291 -9.46258 22828 ft 390 kts 223°
2026-05-04 09:30 38.11129 -9.48352 23155 ft 392 kts 223°
2026-05-04 09:30 38.08952 -9.50458 23515 ft 394 kts 223°
2026-05-04 09:31 38.06760 -9.52575 23836 ft 396 kts 223°
2026-05-04 09:31 38.04560 -9.54697 24144 ft 398 kts 223°
2026-05-04 09:31 38.02353 -9.56820 24464 ft 399 kts 223°
2026-05-04 09:31 38.00132 -9.58956 24781 ft 400 kts 223°
2026-05-04 09:32 37.97969 -9.61117 25077 ft 400 kts 225°
2026-05-04 09:32 37.95823 -9.63373 25386 ft 400 kts 226°
2026-05-04 09:34 37.80826 -9.79539 27439 ft 409 kts 225°
2026-05-04 09:34 37.78638 -9.81850 27712 ft 410 kts 225°
2026-05-04 09:34 37.76443 -9.84170 27961 ft 411 kts 225°
2026-05-04 09:34 37.74237 -9.86503 28218 ft 413 kts 225°
2026-05-04 09:35 37.72053 -9.88812 28482 ft 415 kts 225°
2026-05-04 09:35 37.69832 -9.91161 28739 ft 416 kts 225°
2026-05-04 09:35 37.67603 -9.93517 28999 ft 417 kts 225°
2026-05-04 09:35 37.65368 -9.95876 29251 ft 419 kts 225°
2026-05-04 09:37 37.52145 -10.15178 30636 ft 419 kts 236°
2026-05-04 09:37 37.50324 -10.18042 30863 ft 417 kts 235°
2026-05-04 09:38 37.48512 -10.20887 31121 ft 415 kts 235°
2026-05-04 09:38 37.46715 -10.23699 31329 ft 415 kts 235°
2026-05-04 09:38 37.44905 -10.26529 31551 ft 415 kts 235°
2026-05-04 09:38 37.43087 -10.29369 31783 ft 414 kts 235°
2026-05-04 09:39 37.41282 -10.32189 32020 ft 413 kts 235°
2026-05-04 09:39 37.39478 -10.35005 32255 ft 412 kts 235°
2026-05-04 09:39 37.37702 -10.37775 32486 ft 411 kts 235°
2026-05-04 09:39 37.35907 -10.40577 32718 ft 410 kts 235°
2026-05-04 09:40 37.34114 -10.43371 32949 ft 410 kts 235°
2026-05-04 09:40 37.32323 -10.46158 33176 ft 409 kts 235°
2026-05-04 09:40 37.30538 -10.48934 33398 ft 408 kts 235°
2026-05-04 09:40 37.28755 -10.51707 33641 ft 407 kts 235°
2026-05-04 09:41 37.26976 -10.54468 33847 ft 407 kts 235°
2026-05-04 09:42 37.14572 -10.73646 35088 ft 402 kts 236°
2026-05-04 09:43 37.11070 -10.79045 35169 ft 399 kts 236°
2026-05-04 09:43 37.07570 -10.84426 35168 ft 397 kts 236°
2026-05-04 09:44 37.04073 -10.89798 35174 ft 397 kts 236°
2026-05-04 09:46 36.90122 -11.11150 35172 ft 396 kts 236°
2026-05-04 09:46 36.86627 -11.16485 35171 ft 396 kts 236°
2026-05-04 09:47 36.83134 -11.21816 35182 ft 396 kts 236°
2026-05-04 09:49 36.69163 -11.42994 35177 ft 396 kts 236°
2026-05-04 09:51 36.56900 -11.61455 35183 ft 395 kts 235°
2026-05-04 09:51 36.53392 -11.66728 35183 ft 394 kts 236°
2026-05-04 09:52 36.49891 -11.71985 35178 ft 394 kts 235°
2026-05-04 09:52 36.46384 -11.77235 35183 ft 394 kts 235°
2026-05-04 09:53 36.42906 -11.82440 35183 ft 394 kts 235°
2026-05-04 09:53 36.39388 -11.87687 35143 ft 394 kts 235°
2026-05-04 09:54 36.35898 -11.92877 35174 ft 393 kts 236°
2026-05-04 09:54 36.32395 -11.98079 35186 ft 392 kts 236°
2026-05-04 09:55 36.28904 -12.03268 35193 ft 391 kts 236°
2026-05-04 09:55 36.25437 -12.08415 35183 ft 391 kts 236°
2026-05-04 09:56 36.21949 -12.13593 35190 ft 391 kts 236°
2026-05-04 09:56 36.18457 -12.18761 35193 ft 390 kts 236°
2026-05-04 09:57 36.14962 -12.23915 35194 ft 390 kts 235°
2026-05-04 09:57 36.11483 -12.29024 35193 ft 390 kts 235°
2026-05-04 09:58 36.07994 -12.34156 35189 ft 389 kts 236°
2026-05-04 09:58 36.04513 -12.39282 35205 ft 388 kts 236°
2026-05-04 10:00 35.90651 -12.59584 35202 ft 387 kts 236°
2026-05-04 10:04 35.66277 -12.94970 35195 ft 388 kts 236°
2026-05-04 10:04 35.62790 -13.00009 35207 ft 388 kts 236°
2026-05-04 10:05 35.59274 -13.05079 35202 ft 388 kts 236°
2026-05-04 10:05 35.55766 -13.10129 35209 ft 388 kts 236°
2026-05-04 10:06 35.52274 -13.15149 35164 ft 389 kts 235°
2026-05-04 10:06 35.49347 -13.19354 35172 ft 389 kts 235°
2026-05-04 10:08 35.36965 -13.37067 35187 ft 391 kts 235°
2026-05-04 10:08 35.33423 -13.42123 35191 ft 391 kts 235°
2026-05-04 10:09 35.29908 -13.47144 35194 ft 391 kts 235°
2026-05-04 10:09 35.26358 -13.52190 35182 ft 391 kts 234°
2026-05-04 10:10 35.22800 -13.57227 35191 ft 391 kts 234°
2026-05-04 10:10 35.19247 -13.62269 35195 ft 391 kts 234°
2026-05-04 10:11 35.15685 -13.67309 35190 ft 392 kts 234°
2026-05-04 10:11 35.12124 -13.72340 35191 ft 392 kts 234°
2026-05-04 10:12 35.08554 -13.77368 35196 ft 392 kts 234°
2026-05-04 10:12 35.04991 -13.82396 35196 ft 392 kts 234°
2026-05-04 10:13 35.01424 -13.87426 35190 ft 392 kts 234°
2026-05-04 10:13 34.97846 -13.92450 35189 ft 392 kts 234°
2026-05-04 10:14 34.94263 -13.97469 35189 ft 393 kts 234°
2026-05-04 10:16 34.79962 -14.17470 35184 ft 391 kts 234°
2026-05-04 10:16 34.76387 -14.22451 35179 ft 391 kts 234°
2026-05-04 10:17 34.72825 -14.27414 35179 ft 391 kts 234°
2026-05-04 10:19 34.58446 -14.47341 35166 ft 392 kts 234°
2026-05-04 10:19 34.54847 -14.52311 35171 ft 392 kts 234°
2026-05-04 10:20 34.51245 -14.57280 35174 ft 392 kts 234°
2026-05-04 10:20 34.47664 -14.62211 35165 ft 392 kts 233°
2026-05-04 10:21 34.44049 -14.67189 35166 ft 392 kts 233°
2026-05-04 10:21 34.40449 -14.72124 35169 ft 393 kts 233°
2026-05-04 10:22 34.34860 -14.79420 34959 ft 395 kts 231°
2026-05-04 10:22 34.32938 -14.81811 34692 ft 397 kts 231°
2026-05-04 10:23 34.31008 -14.84210 34454 ft 398 kts 231°
2026-05-04 10:23 34.29079 -14.86615 34219 ft 399 kts 231°
2026-05-04 10:25 34.15619 -15.03552 32374 ft 396 kts 231°
2026-05-04 10:25 34.13708 -15.05946 32125 ft 395 kts 231°
2026-05-04 10:25 34.11801 -15.08334 31866 ft 393 kts 231°
2026-05-04 10:25 34.09932 -15.10687 31606 ft 391 kts 231°
2026-05-04 10:26 34.08038 -15.13073 31365 ft 390 kts 231°
2026-05-04 10:26 34.06164 -15.15428 31120 ft 388 kts 231°
2026-05-04 10:26 34.04294 -15.17776 30878 ft 387 kts 231°
2026-05-04 10:26 34.02451 -15.20085 30619 ft 386 kts 231°
2026-05-04 10:27 34.00586 -15.22424 30383 ft 385 kts 231°
2026-05-04 10:27 33.98730 -15.24749 30127 ft 384 kts 231°
2026-05-04 10:27 33.96877 -15.27069 29844 ft 383 kts 231°
2026-05-04 10:27 33.95049 -15.29353 29570 ft 381 kts 231°
2026-05-04 10:28 33.93200 -15.31663 29291 ft 380 kts 231°
2026-05-04 10:28 33.91365 -15.33955 29020 ft 379 kts 231°
2026-05-04 10:28 33.89555 -15.36213 28752 ft 378 kts 231°
2026-05-04 10:28 33.87727 -15.38491 28485 ft 377 kts 231°
2026-05-04 10:29 33.85905 -15.40756 28219 ft 376 kts 231°
2026-05-04 10:29 33.84086 -15.43013 27949 ft 375 kts 230°
2026-05-04 10:29 33.82269 -15.45265 27701 ft 374 kts 230°
2026-05-04 10:29 33.80459 -15.47511 27448 ft 373 kts 230°
2026-05-04 10:30 33.78673 -15.49726 27190 ft 372 kts 230°
2026-05-04 10:30 33.76871 -15.51958 26934 ft 371 kts 230°
2026-05-04 10:30 33.75068 -15.54194 26684 ft 370 kts 230°
2026-05-04 10:30 33.73280 -15.56413 26415 ft 369 kts 230°
2026-05-04 10:31 33.71514 -15.58603 26165 ft 369 kts 230°
2026-05-04 10:31 33.69725 -15.60821 25930 ft 368 kts 230°
2026-05-04 10:32 33.59056 -15.73996 25152 ft 366 kts 229°
2026-05-04 10:33 33.57276 -15.76183 25151 ft 367 kts 229°
2026-05-04 10:33 33.55497 -15.78370 25150 ft 367 kts 229°
2026-05-04 10:33 33.53699 -15.80542 25144 ft 367 kts 228°
2026-05-04 10:33 33.51880 -15.82687 25144 ft 367 kts 228°
2026-05-04 10:34 33.50048 -15.84822 25142 ft 367 kts 228°
2026-05-04 10:34 33.48240 -15.86923 25141 ft 367 kts 228°
2026-05-04 10:34 33.46407 -15.89052 25141 ft 367 kts 228°
2026-05-04 10:34 33.44574 -15.91181 25142 ft 367 kts 227°
2026-05-04 10:35 33.42744 -15.93313 25130 ft 367 kts 227°
2026-05-04 10:35 33.40911 -15.95448 25061 ft 368 kts 228°
2026-05-04 10:35 33.39064 -15.97605 24165 ft 376 kts 227°
2026-05-04 10:35 33.37209 -15.99782 23680 ft 372 kts 227°
2026-05-04 10:36 33.35339 -16.01972 22670 ft 378 kts 227°
2026-05-04 10:36 33.33461 -16.04165 21900 ft 377 kts 227°
2026-05-04 10:36 33.31583 -16.06351 21206 ft 375 kts 227°
2026-05-04 10:36 33.29721 -16.08515 20544 ft 372 kts 227°
2026-05-04 10:37 33.27892 -16.10641 19922 ft 370 kts 227°
2026-05-04 10:37 33.26053 -16.12781 19321 ft 367 kts 227°
2026-05-04 10:37 33.24227 -16.14905 18750 ft 365 kts 227°
2026-05-04 10:37 33.22408 -16.17020 18144 ft 363 kts 227°
2026-05-04 10:39 33.11727 -16.29407 14841 ft 350 kts 226°
2026-05-04 10:39 33.09986 -16.31419 14320 ft 347 kts 226°
2026-05-04 10:39 33.08273 -16.33397 13812 ft 346 kts 226°
2026-05-04 10:40 33.06538 -16.35398 13305 ft 346 kts 226°
2026-05-04 10:40 33.04819 -16.37386 12830 ft 342 kts 226°
2026-05-04 10:40 33.03115 -16.39359 12333 ft 339 kts 226°
2026-05-04 10:40 33.01436 -16.41301 11806 ft 337 kts 225°
2026-05-04 10:41 32.99761 -16.43235 11365 ft 332 kts 225°
2026-05-04 10:41 32.98109 -16.45140 10938 ft 328 kts 225°
2026-05-04 10:41 32.96476 -16.47021 10520 ft 325 kts 225°
2026-05-04 10:41 32.94861 -16.48875 10303 ft 316 kts 225°
2026-05-04 10:42 32.93326 -16.50635 10178 ft 303 kts 225°
2026-05-04 10:42 32.91828 -16.52326 10019 ft 291 kts 224°
2026-05-04 10:42 32.90338 -16.53939 9631 ft 288 kts 223°
2026-05-04 10:42 32.88843 -16.55526 9289 ft 284 kts 223°
2026-05-04 10:43 32.87404 -16.57043 9025 ft 276 kts 223°
2026-05-04 10:44 32.77000 -16.65007 6756 ft 253 kts 200°
2026-05-04 10:45 32.75333 -16.65678 6447 ft 252 kts 200°
2026-05-04 10:45 32.73678 -16.66348 6114 ft 250 kts 200°
2026-05-04 10:45 32.72035 -16.67016 5760 ft 249 kts 200°
2026-05-04 10:45 32.70395 -16.67683 5360 ft 249 kts 200°
2026-05-04 10:46 32.68769 -16.68344 4974 ft 249 kts 200°
2026-05-04 10:46 32.67155 -16.68998 4587 ft 240 kts 199°
2026-05-04 10:46 32.65610 -16.69621 4179 ft 226 kts 199°
2026-05-04 10:46 32.64172 -16.70202 3773 ft 211 kts 200°
2026-05-04 10:47 32.62907 -16.70981 3346 ft 199 kts 216°
2026-05-04 10:47 32.61928 -16.72090 2883 ft 191 kts 232°
2026-05-04 10:47 32.61253 -16.73424 2426 ft 187 kts 246°
2026-05-04 10:47 32.60900 -16.74884 2040 ft 181 kts 262°
2026-05-04 10:49 32.65254 -16.80383 1026 ft 149 kts
2026-05-04 10:49 32.66290 -16.80371 811 ft 149 kts
2026-05-04 10:50 32.67269 -16.80085 629 ft 145 kts 26°
2026-05-04 10:51 32.69848 -16.77180 183 ft 11 kts 193°
2026-05-04 10:52 32.69795 -16.77231 180 ft 11 kts 226°
2026-05-04 10:52 32.69730 -16.77312 173 ft 16 kts 226°
2026-05-04 10:52 32.69646 -16.77415 169 ft 17 kts 226°
2026-05-04 10:54 32.69416 -16.77594 169 ft 2 kts 138°
2026-05-04 10:54 32.69412 -16.77591 169 ft 0 kts 138°